Location: D�rnast
(49.6426°N, 11.9755°E)
Time: 21:08:34
(UTC+00:00)

BlueWalker 3 - Pass Details

Date: 07 December 2022
Orbit: 499 x 517 km, 53.2° (Epoch: 04 February)

Event Time Altitude Azimuth Distance (km) Brightness Sun altitude
Rises 17:46:49 0° 293° (WNW) 2,628 6.5 -23.9°
Reaches altitude 10° 17:49:03 10° 289° (WNW) 1,735 5.5 -24.3°
Enters shadow 17:52:33 53° 235° (SW) 632 2.6 -24.8°
